TimeEDT,TemperatureF,Dew PointF,Humidity,Sea Level PressureIn,VisibilityMPH,Wind Direction,Wind SpeedMPH,Gust SpeedMPH,PrecipitationIn,Events,Conditions,WindDirDegrees,DateUTC
12:15 AM,77.0,66.2,69,30.13,10.0,SW,5.8,-,N/A,,Clear,230,2013-05-31 04:15:00
12:35 AM,75.2,66.2,73,30.13,10.0,SW,5.8,-,N/A,,Clear,230,2013-05-31 04:35:00
12:55 AM,75.2,66.2,73,30.13,10.0,WSW,4.6,-,N/A,,Clear,240,2013-05-31 04:55:00
1:15 AM,75.2,66.2,73,30.13,10.0,WSW,4.6,-,N/A,,Clear,240,2013-05-31 05:15:00
1:35 AM,73.4,66.2,78,30.13,10.0,WSW,4.6,-,N/A,,Clear,240,2013-05-31 05:35:00
1:55 AM,73.4,66.2,78,30.13,10.0,SW,5.8,-,N/A,,Clear,230,2013-05-31 05:55:00
2:15 AM,73.4,66.2,78,30.13,10.0,WSW,4.6,-,N/A,,Clear,240,2013-05-31 06:15:00
2:35 AM,73.4,66.2,78,30.13,10.0,SW,4.6,-,N/A,,Clear,230,2013-05-31 06:35:00
2:55 AM,73.4,66.2,78,30.13,10.0,SW,5.8,-,N/A,,Clear,230,2013-05-31 06:55:00
3:15 AM,73.4,66.2,78,30.13,10.0,SW,5.8,-,N/A,,Clear,230,2013-05-31 07:15:00
3:35 AM,71.6,66.2,83,30.13,10.0,WSW,6.9,-,N/A,,Clear,240,2013-05-31 07:35:00
3:55 AM,71.6,66.2,83,30.13,10.0,WSW,4.6,-,N/A,,Clear,240,2013-05-31 07:55:00
4:15 AM,71.6,66.2,83,30.13,10.0,WSW,5.8,-,N/A,,Clear,240,2013-05-31 08:15:00
4:35 AM,71.6,66.2,83,30.12,10.0,WSW,4.6,-,N/A,,Clear,240,2013-05-31 08:35:00
4:55 AM,71.6,66.2,83,30.12,10.0,SW,5.8,-,N/A,,Clear,230,2013-05-31 08:55:00
5:15 AM,69.8,66.2,88,30.13,10.0,SW,6.9,-,N/A,,Clear,230,2013-05-31 09:15:00
5:35 AM,69.8,66.2,88,30.13,10.0,SW,6.9,-,N/A,,Clear,230,2013-05-31 09:35:00
5:55 AM,69.8,66.2,88,30.14,10.0,SW,5.8,-,N/A,,Clear,230,2013-05-31 09:55:00
6:15 AM,69.8,66.2,88,30.14,10.0,WSW,5.8,-,N/A,,Clear,240,2013-05-31 10:15:00
6:35 AM,71.6,66.2,83,30.15,10.0,SW,6.9,-,N/A,,Clear,230,2013-05-31 10:35:00
6:55 AM,71.6,68.0,88,30.15,10.0,WSW,5.8,-,N/A,,Clear,240,2013-05-31 10:55:00
7:15 AM,71.6,68.0,88,30.15,10.0,WSW,5.8,-,N/A,,Clear,250,2013-05-31 11:15:00
7:35 AM,73.4,68.0,83,30.15,10.0,SW,6.9,-,N/A,,Clear,230,2013-05-31 11:35:00
7:55 AM,75.2,69.8,83,30.15,10.0,WSW,6.9,-,N/A,,Clear,240,2013-05-31 11:55:00
8:15 AM,78.8,69.8,74,30.15,10.0,WSW,6.9,-,N/A,,Clear,250,2013-05-31 12:15:00
8:35 AM,78.8,69.8,74,30.15,10.0,WSW,6.9,-,N/A,,Clear,250,2013-05-31 12:35:00
8:55 AM,80.6,69.8,70,30.15,10.0,West,4.6,-,N/A,,Clear,260,2013-05-31 12:55:00
9:15 AM,82.4,69.8,66,30.15,10.0,West,5.8,-,N/A,,Clear,260,2013-05-31 13:15:00
9:35 AM,82.4,69.8,66,30.14,10.0,West,6.9,-,N/A,,Clear,270,2013-05-31 13:35:00
9:55 AM,84.2,69.8,62,30.14,10.0,West,5.8,-,N/A,,Clear,270,2013-05-31 13:55:00
10:15 AM,84.2,69.8,62,30.14,10.0,West,5.8,-,N/A,,Clear,260,2013-05-31 14:15:00
10:35 AM,86.0,69.8,58,30.13,10.0,West,5.8,-,N/A,,Clear,270,2013-05-31 14:35:00
10:55 AM,87.8,68.0,52,30.13,10.0,SW,9.2,-,N/A,,Clear,230,2013-05-31 14:55:00
11:15 AM,87.8,66.2,49,30.13,10.0,SSW,8.1,-,N/A,,Clear,210,2013-05-31 15:15:00
11:35 AM,87.8,66.2,49,30.13,10.0,WSW,9.2,-,N/A,,Clear,250,2013-05-31 15:35:00
11:55 AM,89.6,64.4,43,30.12,10.0,West,6.9,-,N/A,,Clear,270,2013-05-31 15:55:00
12:15 PM,89.6,66.2,46,30.12,10.0,South,6.9,-,N/A,,Clear,190,2013-05-31 16:15:00
12:35 PM,91.4,64.4,41,30.11,10.0,WSW,6.9,-,N/A,,Clear,250,2013-05-31 16:35:00
12:55 PM,91.4,64.4,41,30.11,10.0,WSW,8.1,-,N/A,,Clear,250,2013-05-31 16:55:00
1:15 PM,89.6,68.0,49,30.11,10.0,South,5.8,-,N/A,,Clear,180,2013-05-31 17:15:00
1:35 PM,89.6,66.2,46,30.10,10.0,South,10.4,-,N/A,,Clear,170,2013-05-31 17:35:00
1:55 PM,89.6,66.2,46,30.09,10.0,SSE,9.2,-,N/A,,Clear,160,2013-05-31 17:55:00
2:15 PM,89.6,66.2,46,30.09,10.0,SE,10.4,-,N/A,,Clear,140,2013-05-31 18:15:00
2:35 PM,89.6,66.2,46,30.08,10.0,SSE,9.2,-,N/A,,Clear,160,2013-05-31 18:35:00
2:55 PM,89.6,66.2,46,30.08,10.0,SSE,11.5,17.3,N/A,,Clear,150,2013-05-31 18:55:00
3:15 PM,87.8,66.2,49,30.07,10.0,SSE,12.7,16.1,N/A,,Clear,160,2013-05-31 19:15:00
3:35 PM,87.8,64.4,46,30.06,10.0,SSE,8.1,17.3,N/A,,Clear,160,2013-05-31 19:35:00
3:55 PM,87.8,66.2,49,30.06,10.0,SSE,8.1,-,N/A,,Clear,160,2013-05-31 19:55:00
4:15 PM,84.2,68.0,58,30.05,10.0,SSE,8.1,-,N/A,,Clear,150,2013-05-31 20:15:00
4:35 PM,87.8,69.8,55,30.05,10.0,SSE,9.2,-,N/A,,Clear,160,2013-05-31 20:35:00
4:55 PM,87.8,68.0,52,30.04,10.0,SSE,9.2,-,N/A,,Clear,160,2013-05-31 20:55:00
5:15 PM,87.8,69.8,55,30.04,10.0,South,6.9,-,N/A,,Clear,180,2013-05-31 21:15:00
5:35 PM,89.6,66.2,46,30.04,10.0,SSW,9.2,-,N/A,,Clear,200,2013-05-31 21:35:00
5:55 PM,87.8,66.2,49,30.03,10.0,South,4.6,-,N/A,,Clear,170,2013-05-31 21:55:00
6:15 PM,86.0,66.2,51,30.03,10.0,South,5.8,-,N/A,,Clear,170,2013-05-31 22:15:00
6:35 PM,84.2,68.0,58,30.03,10.0,South,3.5,-,N/A,,Clear,170,2013-05-31 22:35:00
6:55 PM,82.4,69.8,66,30.03,10.0,SSE,4.6,-,N/A,,Clear,150,2013-05-31 22:55:00
7:15 PM,82.4,69.8,66,30.03,10.0,South,4.6,-,N/A,,Clear,170,2013-05-31 23:15:00
7:35 PM,82.4,68.0,62,30.03,10.0,South,4.6,-,N/A,,Clear,180,2013-05-31 23:35:00
7:55 PM,82.4,68.0,62,30.03,10.0,SSE,4.6,-,N/A,,Clear,160,2013-05-31 23:55:00
8:15 PM,80.6,68.0,65,30.03,10.0,SSE,5.8,-,N/A,,Clear,160,2013-06-01 00:15:00
8:35 PM,78.8,68.0,69,30.03,10.0,South,4.6,-,N/A,,Clear,180,2013-06-01 00:35:00
8:55 PM,78.8,66.2,65,30.03,10.0,SSW,3.5,-,N/A,,Clear,200,2013-06-01 00:55:00
9:15 PM,78.8,66.2,65,30.04,10.0,SSW,5.8,-,N/A,,Clear,200,2013-06-01 01:15:00
9:35 PM,78.8,66.2,65,30.04,10.0,SSW,6.9,-,N/A,,Clear,210,2013-06-01 01:35:00
9:55 PM,78.8,66.2,65,30.05,10.0,SSW,5.8,-,N/A,,Clear,210,2013-06-01 01:55:00
10:15 PM,78.8,66.2,65,30.06,10.0,SW,4.6,-,N/A,,Clear,220,2013-06-01 02:15:00
10:35 PM,77.0,66.2,69,30.06,10.0,SSW,4.6,-,N/A,,Clear,210,2013-06-01 02:35:00
10:55 PM,75.2,64.4,69,30.06,10.0,SSW,5.8,-,N/A,,Clear,210,2013-06-01 02:55:00
11:15 PM,75.2,64.4,69,30.06,10.0,SW,6.9,-,N/A,,Clear,220,2013-06-01 03:15:00
11:35 PM,75.2,64.4,69,30.06,10.0,SW,6.9,-,N/A,,Clear,220,2013-06-01 03:35:00
11:55 PM,75.2,64.4,69,30.06,10.0,SSW,8.1,-,N/A,,Clear,210,2013-06-01 03:55:00